Погода в Эссо

Россия / Камчатский край     55°55′41″N   158°42′27″E
темп.,
°C
ветер,
м/с
пор.,
м/с
влажн.,
%
обл.,
%
осадки,
мм/ч
давл.,
гПа
погр.,
м
28 ноября, вс
вс2800:00−26зсз22965 0.0 101210
03:00−27зсз32884 0.0 101310
06:00−27зсз32904 0.0 101310
09:00−27з32925 0.0 101310
12:00−22зсз22914 0.0 101129
15:00−21зсз22925 0.0 100918
18:00−26з32926 0.0 101312
21:00−27з32882 0.0 101311
29 ноября, пн
пн2900:00−26зюз32842 0.0 101312
03:00−25зюз33785 0.0 101313
06:00−22зюз32745 0.0 101213
09:00−22зюз337743 0.0 101213
12:00−16зюз2285100 0.0 101124
15:00−15зюз229197 0.0 101116
18:00−18зюз3294100 0.0 101312
21:00−15юз2292100 0.0 101216
30 ноября, вт
вт3000:00−16юз2292100 0.0 101214
03:00−15ююз2292100 0.0 101014
06:00−16юз1194100 0.0 10109
09:00−18юз2296100 0.0 10109
12:00−16зюз2292100 0.0 100817
15:00−16з2290100 0.0 100822
18:00−19зюз339631 0.0 101112
21:00−15з5108412 0.2 1011295
1 декабря, ср
ср100:00−15з51090100 0.3 1014449
03:00−13зюз61485100 0.2 10151144
06:00−13з9178020 0.3 1016789
09:00−17ююз339465 0.1 102024
12:00−13ююз349298 0.3 1020145
15:00−12юз359297 0.3 1021324
18:00−16ю3287100 0.4 102414
21:00−18ююз2289100 0.0 102511
2 декабря, чт
чт200:00−13юв2391100 0.0 102191
03:00−12юв3596100 0.7 1016182
06:00−11юв4696100 1.9 1012243
09:00−11юв4696100 0.6 1007226
12:00−9юв4696100 2.4 1001204
15:00−8юв4596100 1.4 995204
18:00−8ююв3496100 2.6 988125
21:00−5ю3596100 2.3 983182